Starlink 5491

operational
NORAD ID: 55332 Int'l Des: 2023-013 Owner: SPXS Country: US Constellation: starlink
LEOCIRCULAR

Starlink 5491について

説明を読み込み中...

リアルタイム位置

3D地球を読み込み中...

次回通過

高度履歴

Altitude vs Time

uPlot chart will show altitude changes over time

軌道要素

1 55332U 23013B 26033.23141685 .00001214 00000-0 10496-3 0 9992
2 55332 43.0034 120.1495 0001203 271.5484 88.5221 15.02537787166524
Epoch: Feb 2, 2026 • Age: 22 hours

現在のステータス

高度 568.7 km
速度 7.58 km/s
衛星直下点 -35.53°S, 161.25°E
打ち上げ日 Jan 26, 2023
運用期間 3 years
タイプ internet

技術仕様

分類 Payload
質量 305.00 kg
乾燥質量 290.00 kg
総質量 305.00 kg
長さ 0.20 m
直径 2.80 m
スパン 9.00 m
形状 Box + pan
製造者 SPXS
バスタイプ Starlink
フェーズステータス In Orbit
所有者/国 SPXS/US

大規模コンステレーション

Loading constellations...